Flag for Germany Weather past 2 weeks in Seevetal, Lower Saxony, Germany

Now
91 °F

Passing clouds.


Feels Like: 93 °F
Forecast: 68 / 88 °F
Wind: 6 mph from Southeast

Location: Hamburg-Finkenwerder

Current Time: Jul 4, 2015 at 4:43:04 PM

Latest Report: Jul 4, 2015 at 1:20 PM


Visibility: N/A

Pressure: 30.07 "Hg

Humidity: 41%

Dew point: 64 °F

Location of SeevetalLocation

Historic Weather in Seevetal — Graph

°F

Seevetal temperature yesterday

Maximum temperature yesterday: 84 °F (at 2:50 PM)
Minimum temperature yesterday: 68 °F (at 5:50 AM)
Average temperature yesterday: 77 °F

Past Weeks' High & Low Weather Summary

 TemperatureHumidityPressure
High91 °F (Jul 2, 4:20 PM)100% (Jun 22, 5:50 AM)30.24 "Hg (Jun 22, 5:50 AM)
Low50 °F (Jun 23, 5:50 AM)24% (Jul 2, 4:20 PM)29.68 "Hg (Jun 22, 2:50 PM)
Average67 °F68%30.05 "Hg
* Reported Jun 19 1:20 PM — Jul 4 1:20 PM, Seevetal, Weather by CustomWeather, © 2015

Note: Actual official high and low records may vary slightly from our data, if they occured in-between our weather recording intervals... More about our weather records

Advertising

Seevetal weather history for previous 24 hours

 ConditionsComfort  
Time TempWeatherWind HumidityBarometerVisibility
1:20 PM
Sat, Jul 4
91 °FPassing clouds.6 mph41%30.07 "HgN/A
12:50 PM91 °FSunny.6 mph41%30.07 "Hg10 mi
12:20 PM90 °FPassing clouds.7 mph41%30.07 "HgN/A
11:50 AM88 °FPassing clouds.8 mph43%30.07 "HgN/A
11:20 AM86 °FPassing clouds.8 mph46%30.09 "HgN/A
10:50 AM84 °FPassing clouds.7 mph48%30.09 "HgN/A
10:20 AM82 °FPassing clouds.8 mph51%30.09 "HgN/A
9:50 AM81 °FPassing clouds.6 mph54%30.09 "HgN/A
9:20 AM79 °FPassing clouds.7 mph54%30.12 "HgN/A
8:20 PM
Fri, Jul 3
82 °FPassing clouds.6 mph62%30.21 "HgN/A
7:50 PM81 °FSunny.7 mph70%30.21 "Hg10 mi
7:20 PM81 °FSunny.7 mph70%30.21 "Hg10 mi
6:50 PM82 °FPassing clouds.7 mph66%30.21 "HgN/A
6:20 PM82 °FSunny.7 mph66%30.21 "Hg10 mi
5:50 PM81 °FSunny.9 mph70%30.24 "Hg10 mi
5:20 PM81 °FPassing clouds.10 mph70%30.24 "HgN/A
4:50 PM81 °FPassing clouds.10 mph70%30.24 "HgN/A
4:20 PM81 °FPassing clouds.12 mph70%30.24 "HgN/A
Weather by CustomWeather, © 2015

See weather overviewHow to use our weather pages